Total_Precipitation_Accumulation
0.05 0.10 0.29 0.38 0.39 0.41 0.45 0.48 0.49 0.47 0.47 0.50 0.55 0.60 0.61 0.63 0.62 0.60 0.60 0.61 0.65 0.74 0.80 0.89 0.94 0.96 0.87 0.73 0.68 0.60 0.52 0.46 0.43 0.42 0.46 0.54 0.58 0.53 0.46 0.39 0.32 0.43 0.62
0.07 0.12 0.27 0.33 0.36 0.38 0.42 0.45 0.48 0.47 0.47 0.51 0.51 0.58 0.62 0.63 0.64 0.65 0.67 0.65 0.68 0.76 0.79 0.89 0.92 0.90 0.83 0.70 0.65 0.56 0.48 0.42 0.34 0.30 0.30 0.34 0.50 0.55 0.48 0.43 0.42 0.62 0.70
0.06 0.12 0.23 0.30 0.34 0.37 0.40 0.43 0.44 0.45 0.47 0.52 0.53 0.58 0.62 0.64 0.65 0.70 0.73 0.73 0.73 0.79 0.82 0.86 0.83 0.81 0.78 0.72 0.70 0.62 0.49 0.44 0.34 0.26 0.22 0.23 0.39 0.57 0.56 0.50 0.51 0.70 0.73
0.04 0.09 0.18 0.29 0.35 0.40 0.42 0.43 0.44 0.45 0.49 0.53 0.56 0.60 0.64 0.65 0.66 0.70 0.72 0.74 0.73 0.76 0.84 0.85 0.83 0.82 0.79 0.77 0.69 0.58 0.48 0.44 0.33 0.23 0.14 0.18 0.41 0.66 0.64 0.56 0.54 0.67 0.72
0.05 0.09 0.18 0.30 0.37 0.45 0.46 0.47 0.47 0.51 0.55 0.59 0.60 0.64 0.68 0.71 0.72 0.73 0.71 0.68 0.67 0.66 0.69 0.71 0.77 0.83 0.83 0.79 0.72 0.62 0.52 0.43 0.30 0.17 0.12 0.22 0.46 0.70 0.64 0.61 0.60 0.66 0.69
0.08 0.12 0.21 0.33 0.43 0.50 0.52 0.50 0.51 0.56 0.61 0.66 0.70 0.72 0.76 0.83 0.84 0.80 0.75 0.74 0.67 0.63 0.64 0.67 0.72 0.82 0.82 0.76 0.71 0.70 0.70 0.54 0.31 0.16 0.15 0.22 0.35 0.59 0.68 0.77 0.78 0.72 0.68
0.13 0.19 0.27 0.40 0.52 0.57 0.59 0.59 0.58 0.63 0.66 0.70 0.74 0.78 0.82 0.88 0.89 0.84 0.80 0.76 0.74 0.71 0.69 0.68 0.71 0.80 0.79 0.73 0.70 0.70 0.74 0.55 0.31 0.24 0.18 0.18 0.30 0.55 0.83 0.95 0.99 0.86 0.76
0.15 0.22 0.34 0.53 0.60 0.63 0.69 0.70 0.69 0.73 0.77 0.78 0.80 0.86 0.90 0.91 0.93 0.93 0.86 0.78 0.78 0.77 0.74 0.73 0.75 0.77 0.73 0.68 0.66 0.65 0.62 0.43 0.35 0.37 0.31 0.31 0.42 0.70 0.91 1.09 1.07 0.91 0.83
0.23 0.30 0.41 0.58 0.67 0.74 0.82 0.85 0.83 0.85 0.87 0.86 0.88 0.92 0.96 0.96 0.95 0.95 0.91 0.82 0.80 0.79 0.83 0.80 0.76 0.71 0.66 0.63 0.64 0.63 0.54 0.38 0.32 0.47 0.44 0.55 0.53 0.75 0.89 1.03 1.11 1.02 0.90
0.33 0.38 0.48 0.61 0.71 0.79 0.89 0.96 0.97 0.97 1.00 1.04 1.05 0.96 0.94 1.03 1.07 1.04 0.94 0.88 0.86 0.85 0.87 0.89 0.81 0.71 0.63 0.60 0.57 0.57 0.49 0.35 0.26 0.38 0.64 0.61 0.55 0.86 1.01 1.02 1.09 1.07 1.01
0.45 0.48 0.59 0.69 0.77 0.84 0.90 0.96 1.10 1.18 1.20 1.22 1.23 1.11 1.08 1.09 1.07 1.04 0.95 0.91 0.87 0.88 0.85 0.92 0.94 0.84 0.74 0.66 0.62 0.54 0.46 0.32 0.26 0.35 0.46 0.48 0.62 0.89 1.15 1.19 1.17 1.10 1.02
0.45 0.51 0.63 0.78 0.87 0.99 1.02 1.07 1.17 1.21 1.26 1.24 1.08 1.12 1.18 1.05 1.01 0.97 0.98 1.01 0.95 0.93 0.93 0.92 0.95 0.92 0.83 0.69 0.65 0.58 0.41 0.30 0.29 0.25 0.27 0.34 0.55 0.86 1.10 1.26 1.32 1.28 1.14
0.46 0.53 0.65 0.85 1.02 1.14 1.13 1.10 1.12 1.15 1.17 1.20 1.08 0.98 1.04 1.07 1.05 1.06 1.01 1.06 1.06 1.02 1.06 1.02 0.98 0.89 0.80 0.72 0.69 0.60 0.44 0.35 0.31 0.26 0.24 0.30 0.43 0.66 0.94 1.18 1.32 1.39 1.35
0.51 0.58 0.72 0.89 1.07 1.22 1.25 1.19 1.12 1.12 1.09 1.09 1.09 1.08 1.04 1.05 0.96 0.91 0.90 0.88 0.90 0.88 0.91 0.96 0.89 0.82 0.76 0.71 0.66 0.61 0.54 0.46 0.35 0.33 0.27 0.31 0.38 0.47 0.66 0.90 1.09 1.31 1.45
0.53 0.62 0.79 0.97 1.09 1.26 1.38 1.32 1.23 1.15 1.04 1.06 1.12 1.21 1.14 1.01 0.91 0.89 0.84 0.83 0.83 0.82 0.81 0.81 0.76 0.72 0.69 0.65 0.62 0.59 0.55 0.47 0.40 0.37 0.32 0.34 0.36 0.40 0.53 0.72 0.91 1.20 1.49
0.54 0.66 0.83 0.99 1.12 1.29 1.38 1.33 1.26 1.20 1.11 1.14 1.16 1.17 1.25 1.18 1.00 0.95 0.93 0.85 0.82 0.81 0.80 0.78 0.74 0.70 0.67 0.62 0.57 0.51 0.50 0.51 0.47 0.45 0.40 0.39 0.38 0.37 0.45 0.62 0.80 1.03 1.38
0.57 0.70 0.87 0.98 1.15 1.31 1.32 1.33 1.31 1.26 1.21 1.18 1.14 1.13 1.25 1.27 1.26 1.14 1.04 0.95 0.87 0.86 0.87 0.85 0.82 0.74 0.71 0.65 0.60 0.54 0.48 0.47 0.45 0.47 0.46 0.44 0.44 0.40 0.42 0.53 0.67 0.87 1.12
0.66 0.71 0.84 1.00 1.11 1.25 1.33 1.34 1.31 1.31 1.26 1.24 1.25 1.21 1.21 1.30 1.34 1.38 1.24 1.08 0.94 0.94 0.95 0.94 0.91 0.86 0.77 0.71 0.67 0.61 0.53 0.48 0.45 0.44 0.44 0.44 0.47 0.46 0.45 0.48 0.52 0.68 0.91
0.70 0.75 0.86 1.00 1.06 1.16 1.34 1.44 1.37 1.33 1.33 1.34 1.36 1.35 1.25 1.29 1.37 1.46 1.48 1.31 1.13 1.06 1.00 0.95 0.91 0.87 0.84 0.78 0.75 0.70 0.62 0.54 0.49 0.49 0.44 0.39 0.40 0.45 0.48 0.48 0.51 0.56 0.73
0.77 0.84 0.90 0.99 1.10 1.17 1.38 1.56 1.60 1.46 1.37 1.37 1.38 1.33 1.32 1.36 1.37 1.38 1.46 1.49 1.36 1.24 1.14 1.02 0.96 0.87 0.80 0.78 0.81 0.82 0.72 0.62 0.56 0.54 0.53 0.46 0.39 0.39 0.46 0.49 0.52 0.52 0.59
0.82 0.87 0.96 0.97 1.11 1.23 1.35 1.54 1.58 1.51 1.37 1.32 1.29 1.27 1.24 1.31 1.37 1.39 1.33 1.40 1.43 1.35 1.22 1.12 1.05 1.00 0.92 0.84 0.89 0.97 0.95 0.77 0.64 0.59 0.58 0.56 0.50 0.43 0.42 0.47 0.52 0.55 0.58
0.84 0.86 0.96 1.02 1.10 1.15 1.24 1.36 1.51 1.52 1.43 1.37 1.33 1.29 1.24 1.24 1.29 1.39 1.41 1.34 1.34 1.34 1.29 1.17 1.10 1.06 1.03 0.92 0.88 0.95 1.01 1.01 0.80 0.62 0.57 0.56 0.56 0.53 0.48 0.46 0.49 0.55 0.60
0.82 0.86 0.91 1.02 1.11 1.15 1.28 1.40 1.54 1.73 1.67 1.56 1.50 1.39 1.27 1.22 1.21 1.25 1.37 1.39 1.34 1.31 1.28 1.21 1.10 1.01 1.00 0.93 0.81 0.93 1.01 0.91 0.77 0.64 0.58 0.51 0.50 0.55 0.53 0.49 0.47 0.48 0.54
0.73 0.85 0.92 1.04 1.13 1.16 1.31 1.45 1.43 1.57 1.59 1.41 1.30 1.34 1.30 1.23 1.19 1.16 1.19 1.27 1.33 1.29 1.22 1.17 1.15 1.08 1.05 1.04 0.89 0.78 0.78 0.75 0.79 0.70 0.62 0.59 0.54 0.52 0.53 0.51 0.48 0.45 0.46
0.67 0.80 0.91 1.06 1.18 1.21 1.25 1.42 1.46 1.39 1.39 1.39 1.38 1.34 1.36 1.34 1.26 1.16 1.14 1.16 1.20 1.21 1.14 1.11 1.13 1.12 1.09 1.06 0.98 0.83 0.74 0.65 0.64 0.74 0.65 0.59 0.64 0.59 0.55 0.56 0.54 0.51 0.47
0.67 0.79 0.89 1.01 1.13 1.20 1.22 1.32 1.46 1.40 1.33 1.33 1.39 1.41 1.38 1.40 1.35 1.22 1.11 1.10 1.08 1.06 1.06 1.02 1.03 1.02 1.01 1.00 0.95 0.89 0.87 0.82 0.69 0.70 0.69 0.56 0.56 0.58 0.59 0.61 0.63 0.60 0.55